This is the latest recevied weather packets stored in our database for station/object AB8Y-13. If no packets are shown the sender has not sent any weather packets the latest 10 day(s).
| Time | Temp. | Humidity | Pressure | Rain* | Wind** | Luminosity | Snow |
|---|---|---|---|---|---|---|---|
| 1777457700 | 8.33° C | 83% | 1012.9 hPa | 0 mm | - | 0 W/m² | - |
| 1777457400 | 8.33° C | 84% | 1012.7 hPa | 0 mm | - | 0 W/m² | - |
| 1777457095 | 8.33° C | 86% | 1012.7 hPa | 0 mm | - | 0 W/m² | - |
| 1777456792 | 8.33° C | 87% | 1012.8 hPa | 0 mm | - | 0 W/m² | - |
| 1777456491 | 8.33° C | 88% | 1012.6 hPa | 0 mm | - | 0 W/m² | - |
| 1777456187 | 8.33° C | 89% | 1012.8 hPa | 0 mm | - | 0 W/m² | - |
| 1777455883 | 8.33° C | 90% | 1012.9 hPa | 0 mm | - | 0 W/m² | - |
| 1777455580 | 8.33° C | 90% | 1013.1 hPa | 0 mm | - | 0 W/m² | - |
| 1777455277 | 8.33° C | 90% | 1013.4 hPa | 0 mm | - | 0 W/m² | - |
| 1777454973 | 7.78° C | 88% | 1013.3 hPa | 0 mm | - | 0 W/m² | - |
| 1777454671 | 7.78° C | 90% | 1013.5 hPa | 0 mm | - | 0 W/m² | - |
| 1777454366 | 7.78° C | 91% | 1013.4 hPa | 0 mm | - | 0 W/m² | - |
| 1777454063 | 8.33° C | 91% | 1013.7 hPa | 0 mm | - | 0 W/m² | - |
| 1777453760 | 8.33° C | 90% | 1013.7 hPa | 0 mm | - | 0 W/m² | - |
| 1777453458 | 8.33° C | 91% | 1013.7 hPa | 0 mm | - | 0 W/m² | - |
| 1777453154 | 8.33° C | 90% | 1013.6 hPa | 0 mm | - | 0 W/m² | - |
| 1777452851 | 8.33° C | 90% | 1013.7 hPa | 0 mm | - | 0 W/m² | - |
| 1777452549 | 8.33° C | 90% | 1013.9 hPa | 0 mm | - | 0 W/m² | - |
| 1777452249 | 8.33° C | 89% | 1013.9 hPa | 0 mm | - | 0 W/m² | - |
| 1777451949 | 8.33° C | 88% | 1014 hPa | 0 mm | - | 0 W/m² | - |
| 1777451646 | 8.33° C | 88% | 1013.9 hPa | 0 mm | - | 0 W/m² | - |
| 1777451341 | 8.33° C | 89% | 1013.6 hPa | 0 mm | - | 0 W/m² | - |
| 1777451037 | 8.33° C | 89% | 1013.3 hPa | 0 mm | - | 0 W/m² | - |
| 1777450733 | 8.33° C | 89% | 1013.4 hPa | 0 mm | - | 0 W/m² | - |
| 1777450429 | 8.33° C | 84% | 1013.4 hPa | 0 mm | - | 0 W/m² | - |
* Rain latest hour (hover to see other rain measurements)
** Current wind speed in m/s (hover to see current wind gust speed)